Preview of NWS' New Version of Forecast
This preview is not operational and should not be used for support decisions.

Regional Weather Roundup (RWR)

Issued by National Weather Service (NWS)

                            
000
ASUS43 KTOP 260508
RWRKS 

WEATHER ROUNDUP FOR KANSAS
NATIONAL WEATHER SERVICE GOODLAND KS
1200 AM CDT MON AUG 26 2019

NOTE:  "FAIR" INDICATES FEW OR NO CLOUDS BELOW 12,000 FEET WITH NO
SIGNIFICANT WEATHER AND/OR OBSTRUCTIONS TO VISIBILITY.

KSZ001>006-013>018-027>032-041>047-260600-
NORTHWEST KANSAS
  
CITY           SKY/WX    TMP DP  RH WIND       PRES   REMARKS
GOODLAND       CLEAR     72  69  90 S10       29.79S                  
HAYS           CLEAR     71  69  93 SE15      29.61F                  
HILL CITY      CLEAR     71  68  90 E7        29.78S                  
RUSSELL        CLEAR     71  69  93 SE12      29.78S                  
$$

KSZ061>065-074>080-084>089-260600-
SOUTHWEST KANSAS
  
CITY           SKY/WX    TMP DP  RH WIND       PRES   REMARKS
DODGE CITY     CLEAR     73  70  90 SE12      29.80R                  
ELKHART        CLEAR     74  68  80 S10       29.83S                  
GARDEN CITY    CLEAR     72  68  87 SE10      29.78F                  
GREAT BEND     CLEAR     71  69  93 SE15      29.79F                  
LIBERAL        CLEAR     73  69  87 SE9       29.80F                  
PRATT          CLEAR     72  70  95 SE8       29.81S                  
$$

KSZ066>073-081>083-090>101-260600-
SOUTHEAST KANSAS
  
CITY           SKY/WX    TMP DP  RH WIND       PRES   REMARKS
CHANUTE        MOCLDY    71  68  90 CALM      29.83F                  
COFFEYVILLE    MOCLDY    72  70  93 E5        29.80F                  
HUTCHINSON     CLEAR     72  68  87 SE9       29.81S                  
MEDICINE LODGE   N/A     73  70  90 SE7       29.78S                  
NEWTON         PTCLDY    69  67  93 SE10      29.83F                  
PARSONS        MOCLDY    71  70  96 CALM      29.83F                  
WICHITA INTL   PTCLDY    73  68  84 SE10      29.80F                  
WICHITA JABRA  CLEAR     70  68  93 SE7       29.81F                  
WICHITA MCCONL CLEAR     71  66  84 E8        29.81F                  
WINFIELD       MOCLDY    72  69  90 E8        29.81F                  
$$

KSZ007>012-019>026-033>040-048>060-102>105-260600-
NORTHEAST KANSAS
  
CITY           SKY/WX    TMP DP  RH WIND       PRES   REMARKS
CONCORDIA      CLOUDY    71  67  87 SE15G21   29.80F                  
EMPORIA        CLOUDY    69  68  96 SE5       29.83F                  
LAWRENCE       CLOUDY    70  66  87 CALM      29.83F                  
MANHATTAN      MOCLDY    70  67  90 E6        29.81F                  
MARYSVILLE     CLOUDY   N/A N/A N/A SE9       29.82F                  
OLATHE IND     CLOUDY    68  66  93 W6        29.84F                  
OLATHE EXE     CLOUDY    67  66  97 W6        29.83F                  
SALINA         CLEAR     71  67  87 SE6       29.80S                  
TOPEKA BILLARD CLOUDY    68  65  90 E6        29.82F                  
TOPEKA FORBES  CLOUDY    69  65  86 NE3       29.83F                  
$$